EWG2EG LEPA-LKPR

Flight info

Callsign EWG2EG
Flight time 2h 4m
Altitude 38000
Route MEROS DCT LAPIT DCT CHELY DCT LUMAS DCT NEVIX DCT ODIXU DCT ADITA DCT RAPED DCT PIGOS DCT EKSID DCT NOSTA DCT NOPMU DCT LAGEN DCT TAGIP DCT GOGEM DCT LENIZ DCT MEBEK DCT NENUM Z39 DOLUP DCT APRAQ
Aircraft A319/M-SDE3FGHIRWY/LB1

Departure

Time 2026-05-06 18:23
Airport Palma de Mallorca Airport (LEPA)

Arrival

Time 2026-05-06 20:28
Airport Václav Havel Airport Prague (LKPR)
Time Latitude Longitude Altitude Speed Heading
2026-05-06 17:16 39.54997 2.73442 39 ft 0 kts 164°
2026-05-06 17:43 39.54997 2.73441 38 ft 0 kts 164°
2026-05-06 18:12 39.54999 2.73441 38 ft 2 kts 164°
2026-05-06 18:12 39.55023 2.73430 36 ft 4 kts 142°
2026-05-06 18:12 39.55035 2.73407 35 ft 4 kts 102°
2026-05-06 18:12 39.55035 2.73374 36 ft 3 kts 82°
2026-05-06 18:13 39.55033 2.73346 35 ft 4 kts 95°
2026-05-06 18:13 39.55034 2.73328 35 ft 0 kts 95°
2026-05-06 18:16 39.55034 2.73335 35 ft 1 kts 95°
2026-05-06 18:16 39.55033 2.73367 35 ft 6 kts 86°
2026-05-06 18:17 39.55052 2.73426 37 ft 9 kts 57°
2026-05-06 18:17 39.55089 2.73503 38 ft 11 kts 59°
2026-05-06 18:17 39.55130 2.73592 38 ft 13 kts 59°
2026-05-06 18:17 39.55177 2.73691 38 ft 12 kts 59°
2026-05-06 18:18 39.55164 2.73774 38 ft 10 kts 95°
2026-05-06 18:18 39.55178 2.73849 38 ft 8 kts 125°
2026-05-06 18:18 39.55122 2.73893 38 ft 11 kts 148°
2026-05-06 18:18 39.55041 2.73956 38 ft 17 kts 148°
2026-05-06 18:19 39.54935 2.74041 38 ft 19 kts 148°
2026-05-06 18:19 39.54845 2.74112 38 ft 7 kts 148°
2026-05-06 18:19 39.54797 2.74136 38 ft 8 kts 197°
2026-05-06 18:19 39.54762 2.74070 38 ft 10 kts 239°
2026-05-06 18:20 39.54720 2.73982 38 ft 13 kts 238°
2026-05-06 18:20 39.54669 2.73873 37 ft 15 kts 239°
2026-05-06 18:20 39.54616 2.73763 38 ft 11 kts 231°
2026-05-06 18:20 39.54579 2.73689 38 ft 7 kts 241°
2026-05-06 18:21 39.54535 2.73684 38 ft 5 kts 154°
2026-05-06 18:21 39.54507 2.73707 38 ft 5 kts 148°
2026-05-06 18:21 39.54488 2.73721 38 ft 3 kts 149°
2026-05-06 18:21 39.54462 2.73741 38 ft 5 kts 149°
2026-05-06 18:22 39.54427 2.73770 38 ft 4 kts 138°
2026-05-06 18:22 39.54430 2.73812 38 ft 5 kts 61°
2026-05-06 18:22 39.54438 2.73828 37 ft 2 kts 58°
2026-05-06 18:22 39.54498 2.73956 38 ft 43 kts 58°
2026-05-06 18:23 39.54764 2.74519 39 ft 102 kts 58°
2026-05-06 18:23 39.55233 2.75506 48 ft 153 kts 57°
2026-05-06 18:23 39.55786 2.76688 650 ft 151 kts 57°
2026-05-06 18:23 39.56320 2.77860 1340 ft 151 kts 60°
2026-05-06 18:24 39.56876 2.79094 1771 ft 168 kts 60°
2026-05-06 18:24 39.57492 2.80471 2218 ft 184 kts 61°
2026-05-06 18:24 39.58163 2.81964 2660 ft 201 kts 60°
2026-05-06 18:24 39.58930 2.83632 3111 ft 223 kts 60°
2026-05-06 18:25 39.59739 2.85378 3627 ft 226 kts 60°
2026-05-06 18:25 39.60543 2.87111 3790 ft 225 kts 60°
2026-05-06 18:25 39.61363 2.88890 4497 ft 230 kts 60°
2026-05-06 18:25 39.62173 2.90668 5484 ft 229 kts 60°
2026-05-06 18:26 39.62982 2.92447 6452 ft 229 kts 59°
2026-05-06 18:26 39.63802 2.94289 7071 ft 246 kts 61°
2026-05-06 18:26 39.64663 2.96315 7640 ft 267 kts 61°
2026-05-06 18:26 39.65584 2.98503 8276 ft 284 kts 61°
2026-05-06 18:27 39.66552 3.00780 9113 ft 292 kts 60°
2026-05-06 18:27 39.67550 3.03114 9993 ft 298 kts 60°
2026-05-06 18:27 39.68570 3.05494 10684 ft 310 kts 60°
2026-05-06 18:27 39.69664 3.08033 11035 ft 333 kts 60°
2026-05-06 18:28 39.70819 3.10698 11661 ft 343 kts 60°
2026-05-06 18:28 39.72000 3.13424 12393 ft 350 kts 60°
2026-05-06 18:28 39.73204 3.16207 13135 ft 356 kts 60°
2026-05-06 18:28 39.74009 3.18073 13625 ft 360 kts 60°
2026-05-06 18:29 39.75242 3.20935 14288 ft 366 kts 60°
2026-05-06 18:29 39.76494 3.23847 14945 ft 371 kts 60°
2026-05-06 18:29 39.77876 3.26702 15612 ft 375 kts 51°
2026-05-06 18:29 39.79572 3.29305 16280 ft 379 kts 47°
2026-05-06 18:30 39.81313 3.31898 16938 ft 383 kts 47°
2026-05-06 18:30 39.83076 3.34532 17614 ft 388 kts 47°
2026-05-06 18:30 39.85438 3.38076 18453 ft 394 kts 47°
2026-05-06 18:30 39.86655 3.39906 18831 ft 398 kts 47°
2026-05-06 18:31 39.88476 3.42647 19395 ft 402 kts 47°
2026-05-06 18:31 39.90315 3.45416 19966 ft 407 kts 47°
2026-05-06 18:31 39.92175 3.48215 20539 ft 411 kts 47°
2026-05-06 18:31 39.94055 3.51055 21098 ft 416 kts 47°
2026-05-06 18:32 39.95952 3.53922 21648 ft 420 kts 47°
2026-05-06 18:32 39.97847 3.56787 22189 ft 424 kts 47°
2026-05-06 18:32 39.99786 3.59724 22728 ft 429 kts 47°
2026-05-06 18:32 40.01741 3.62686 23273 ft 433 kts 47°
2026-05-06 18:33 40.03721 3.65685 23764 ft 438 kts 47°
2026-05-06 18:33 40.05717 3.68706 24210 ft 442 kts 47°
2026-05-06 18:33 40.07734 3.71759 24657 ft 445 kts 47°
2026-05-06 18:33 40.09759 3.74834 25090 ft 449 kts 47°
2026-05-06 18:34 40.11806 3.77951 25521 ft 453 kts 47°
2026-05-06 18:34 40.13867 3.81092 25945 ft 457 kts 47°
2026-05-06 18:34 40.15942 3.84252 26365 ft 460 kts 47°
2026-05-06 18:34 40.18035 3.87447 26782 ft 464 kts 47°
2026-05-06 18:35 40.20139 3.90663 27196 ft 467 kts 47°
2026-05-06 18:35 40.22262 3.93912 27603 ft 471 kts 47°
2026-05-06 18:35 40.24398 3.97181 28009 ft 475 kts 47°
2026-05-06 18:35 40.26551 4.00476 28417 ft 478 kts 47°
2026-05-06 18:36 40.28715 4.03801 28823 ft 482 kts 47°
2026-05-06 18:36 40.30898 4.07161 29223 ft 485 kts 47°
2026-05-06 18:36 40.33093 4.10539 29621 ft 489 kts 47°
2026-05-06 18:36 40.35302 4.13946 30008 ft 492 kts 47°
2026-05-06 18:37 40.37531 4.17381 30344 ft 496 kts 47°
2026-05-06 18:37 40.39772 4.20831 30674 ft 498 kts 47°
2026-05-06 18:37 40.42031 4.24308 31000 ft 501 kts 47°
2026-05-06 18:37 40.44301 4.27799 31324 ft 504 kts 47°
2026-05-06 18:38 40.46695 4.31072 31627 ft 503 kts 38°
2026-05-06 18:38 40.49441 4.33887 32012 ft 499 kts 29°
2026-05-06 18:38 40.52435 4.36129 32480 ft 492 kts 19°
2026-05-06 18:38 40.55586 4.37763 32933 ft 484 kts 10°
2026-05-06 18:39 40.58829 4.38789 33401 ft 475 kts
2026-05-06 18:39 40.62079 4.39558 33881 ft 474 kts
2026-05-06 18:39 40.65329 4.40328 34297 ft 474 kts
2026-05-06 18:40 40.71808 4.41865 35063 ft 473 kts
2026-05-06 18:40 40.75050 4.42641 35431 ft 473 kts
2026-05-06 18:40 40.78283 4.43419 35788 ft 473 kts
2026-05-06 18:40 40.81521 4.44199 36138 ft 472 kts
2026-05-06 18:41 40.84751 4.44978 36484 ft 472 kts
2026-05-06 18:41 40.87985 4.45760 36824 ft 472 kts
2026-05-06 18:41 40.91211 4.46543 37160 ft 471 kts
2026-05-06 18:41 40.94434 4.47325 37485 ft 471 kts
2026-05-06 18:42 40.97661 4.48104 37812 ft 471 kts
2026-05-06 18:42 41.00884 4.48883 37956 ft 471 kts
2026-05-06 18:42 41.04109 4.49668 37971 ft 471 kts
2026-05-06 18:43 41.10561 4.51243 37968 ft 471 kts
2026-05-06 18:43 41.16973 4.52805 37967 ft 471 kts
2026-05-06 18:44 41.23421 4.54375 37990 ft 471 kts
2026-05-06 18:44 41.29881 4.55957 37974 ft 471 kts
2026-05-06 18:45 41.36336 4.57539 37992 ft 472 kts
2026-05-06 18:45 41.42788 4.59126 37984 ft 472 kts
2026-05-06 18:46 41.49246 4.60715 37988 ft 472 kts
2026-05-06 18:46 41.55718 4.62311 37992 ft 472 kts
2026-05-06 18:47 41.62178 4.63907 37994 ft 472 kts
2026-05-06 18:47 41.68598 4.65486 37992 ft 472 kts
2026-05-06 18:48 41.75003 4.67634 37989 ft 480 kts 17°
2026-05-06 18:48 41.81160 4.71173 37986 ft 482 kts 19°
2026-05-06 18:49 41.87325 4.74706 37982 ft 482 kts 18°
2026-05-06 18:49 41.93488 4.78252 37977 ft 482 kts 19°
2026-05-06 18:50 41.99641 4.81813 37975 ft 482 kts 19°
2026-05-06 18:50 42.05808 4.85384 37978 ft 482 kts 19°
2026-05-06 18:51 42.11968 4.88963 37985 ft 482 kts 19°
2026-05-06 18:51 42.18127 4.92551 37988 ft 482 kts 19°
2026-05-06 18:52 42.24249 4.96117 37988 ft 482 kts 19°
2026-05-06 18:52 42.30397 4.99704 37987 ft 481 kts 19°
2026-05-06 18:53 42.36544 5.03301 37985 ft 481 kts 19°
2026-05-06 18:53 42.42639 5.07064 37977 ft 484 kts 25°
2026-05-06 18:54 42.48531 5.11491 37979 ft 484 kts 25°
2026-05-06 18:54 42.54421 5.15927 37976 ft 484 kts 25°
2026-05-06 18:55 42.60305 5.20384 37977 ft 484 kts 25°
2026-05-06 18:55 42.66189 5.24839 37975 ft 484 kts 25°
2026-05-06 18:56 42.72034 5.29264 37978 ft 484 kts 25°
2026-05-06 18:56 42.77949 5.33757 37976 ft 484 kts 25°
2026-05-06 18:57 42.83774 5.38204 37973 ft 483 kts 26°
2026-05-06 18:57 42.89643 5.42678 37968 ft 483 kts 25°
2026-05-06 18:58 42.95516 5.47155 37967 ft 483 kts 26°
2026-05-06 18:58 43.01374 5.51647 37959 ft 483 kts 26°
2026-05-06 18:59 43.07189 5.56255 37950 ft 485 kts 32°
2026-05-06 18:59 43.12147 5.62541 37947 ft 489 kts 51°
2026-05-06 19:00 43.16145 5.70086 37941 ft 490 kts 53°
2026-05-06 19:00 43.20128 5.77671 37934 ft 491 kts 55°
2026-05-06 19:01 43.23136 5.86022 37922 ft 489 kts 74°
2026-05-06 19:01 43.24566 5.95107 37914 ft 487 kts 81°
2026-05-06 19:02 43.25840 6.04238 37905 ft 488 kts 81°
2026-05-06 19:02 43.27122 6.13387 37897 ft 488 kts 81°
2026-05-06 19:03 43.28385 6.22536 37897 ft 489 kts 82°
2026-05-06 19:03 43.29639 6.31712 37904 ft 489 kts 82°
2026-05-06 19:04 43.30876 6.40839 37904 ft 490 kts 82°
2026-05-06 19:04 43.32119 6.50038 37907 ft 490 kts 82°
2026-05-06 19:05 43.33358 6.59241 37911 ft 490 kts 82°
2026-05-06 19:05 43.34584 6.68453 37904 ft 490 kts 82°
2026-05-06 19:06 43.35803 6.77675 37877 ft 490 kts 82°
2026-05-06 19:06 43.37269 6.86831 37867 ft 492 kts 72°
2026-05-06 19:07 43.40415 6.95183 37866 ft 493 kts 53°
2026-05-06 19:07 43.44436 7.02831 37860 ft 493 kts 54°
2026-05-06 19:08 43.48440 7.10513 37863 ft 494 kts 54°
2026-05-06 19:08 43.52437 7.18206 37866 ft 494 kts 54°
2026-05-06 19:09 43.56407 7.25860 37864 ft 494 kts 54°
2026-05-06 19:09 43.60401 7.33567 37862 ft 494 kts 54°
2026-05-06 19:10 43.64392 7.41281 37867 ft 493 kts 54°
2026-05-06 19:10 43.68377 7.48998 37861 ft 493 kts 54°
2026-05-06 19:11 43.72345 7.56724 37860 ft 493 kts 54°
2026-05-06 19:11 43.76299 7.64461 37862 ft 492 kts 54°
2026-05-06 19:12 43.80257 7.72183 37857 ft 492 kts 53°
2026-05-06 19:12 43.85063 7.78864 37851 ft 489 kts 36°
2026-05-06 19:13 43.90454 7.84637 37839 ft 489 kts 36°
2026-05-06 19:13 43.95777 7.90549 37824 ft 491 kts 42°
2026-05-06 19:14 44.00689 7.97158 37822 ft 492 kts 43°
2026-05-06 19:14 44.05613 8.03790 37815 ft 493 kts 43°
2026-05-06 19:15 44.10508 8.10390 37818 ft 494 kts 43°
2026-05-06 19:15 44.15439 8.17061 37828 ft 494 kts 43°
2026-05-06 19:16 44.20361 8.23750 37826 ft 494 kts 43°
2026-05-06 19:16 44.24442 8.29312 37837 ft 494 kts 43°
2026-05-06 19:17 44.29367 8.36038 37842 ft 494 kts 43°
2026-05-06 19:17 44.34272 8.42745 37870 ft 494 kts 43°
2026-05-06 19:18 44.39178 8.49461 37890 ft 493 kts 44°
2026-05-06 19:18 44.44077 8.56178 37908 ft 493 kts 44°
2026-05-06 19:19 44.48965 8.62891 37918 ft 492 kts 44°
2026-05-06 19:19 44.53860 8.69623 37912 ft 492 kts 44°
2026-05-06 19:20 44.58737 8.76341 37916 ft 492 kts 44°
2026-05-06 19:20 44.63615 8.83083 37908 ft 491 kts 44°
2026-05-06 19:21 44.68448 8.89786 37907 ft 492 kts 44°
2026-05-06 19:21 44.73313 8.96545 37908 ft 491 kts 44°
2026-05-06 19:22 44.78167 9.03314 37894 ft 491 kts 44°
2026-05-06 19:22 44.83022 9.10078 37892 ft 490 kts 44°
2026-05-06 19:23 44.87864 9.16858 37890 ft 491 kts 44°
2026-05-06 19:23 44.92698 9.23655 37886 ft 490 kts 44°
2026-05-06 19:24 44.97529 9.30463 37879 ft 491 kts 44°
2026-05-06 19:24 45.02369 9.37288 37870 ft 491 kts 44°
2026-05-06 19:25 45.07208 9.44122 37868 ft 492 kts 44°
2026-05-06 19:25 45.12043 9.50982 37863 ft 492 kts 45°
2026-05-06 19:26 45.16877 9.57862 37864 ft 493 kts 44°
2026-05-06 19:26 45.21714 9.64751 37861 ft 493 kts 45°
2026-05-06 19:27 45.26549 9.71660 37893 ft 493 kts 45°
2026-05-06 19:27 45.31353 9.78535 37905 ft 494 kts 45°
2026-05-06 19:28 45.36186 9.85471 37857 ft 494 kts 45°
2026-05-06 19:28 45.41012 9.92420 37855 ft 494 kts 45°
2026-05-06 19:29 45.45840 9.99389 37846 ft 494 kts 45°
2026-05-06 19:29 45.50665 10.06373 37843 ft 494 kts 45°
2026-05-06 19:30 45.55492 10.13379 37844 ft 495 kts 45°
2026-05-06 19:30 45.60308 10.20381 37850 ft 495 kts 45°
2026-05-06 19:31 45.65124 10.27408 37863 ft 495 kts 45°
2026-05-06 19:31 45.72330 10.37958 37918 ft 494 kts 45°
2026-05-06 19:32 45.77120 10.44991 37930 ft 493 kts 45°
2026-05-06 19:32 45.81893 10.52016 37942 ft 491 kts 45°
2026-05-06 19:33 45.86648 10.59046 37954 ft 490 kts 45°
2026-05-06 19:33 45.91402 10.66050 37962 ft 489 kts 42°
2026-05-06 19:34 45.96849 10.71628 37968 ft 483 kts 25°
2026-05-06 19:34 46.02794 10.76103 37981 ft 481 kts 25°
2026-05-06 19:35 46.08714 10.80593 37987 ft 480 kts 26°
2026-05-06 19:35 46.14621 10.85077 37996 ft 479 kts 26°
2026-05-06 19:36 46.20508 10.89554 37999 ft 478 kts 26°
2026-05-06 19:36 46.26384 10.94045 38002 ft 478 kts 26°
2026-05-06 19:37 46.32259 10.98549 38011 ft 478 kts 26°
2026-05-06 19:37 46.38133 11.03055 38014 ft 478 kts 26°
2026-05-06 19:38 46.44003 11.07567 38001 ft 477 kts 26°
2026-05-06 19:38 46.49867 11.12080 37906 ft 478 kts 26°
2026-05-06 19:39 46.55735 11.16611 37908 ft 477 kts 26°
2026-05-06 19:39 46.61599 11.21152 37909 ft 477 kts 27°
2026-05-06 19:40 46.67444 11.25697 37913 ft 477 kts 27°
2026-05-06 19:40 46.73299 11.30256 37907 ft 476 kts 27°
2026-05-06 19:41 46.79142 11.34803 37897 ft 476 kts 27°
2026-05-06 19:41 46.84899 11.39309 37876 ft 476 kts 27°
2026-05-06 19:42 46.90809 11.43948 37869 ft 476 kts 27°
2026-05-06 19:42 46.96640 11.48533 37856 ft 475 kts 27°
2026-05-06 19:43 47.02747 11.52116 37847 ft 472 kts 11°
2026-05-06 19:43 47.09222 11.53093 37840 ft 467 kts 359°
2026-05-06 19:44 47.15720 11.53496 37842 ft 468 kts 360°
2026-05-06 19:44 47.22222 11.53929 37839 ft 469 kts 360°
2026-05-06 19:45 47.28695 11.54365 37834 ft 468 kts 360°
2026-05-06 19:45 47.35208 11.54791 37833 ft 469 kts 360°
2026-05-06 19:46 47.41742 11.55217 37507 ft 470 kts 359°
2026-05-06 19:46 47.45017 11.55427 37289 ft 470 kts 360°
2026-05-06 19:46 47.48287 11.55637 37155 ft 472 kts 359°
2026-05-06 19:47 47.51576 11.55852 37027 ft 472 kts 359°
2026-05-06 19:47 47.54865 11.56066 36823 ft 473 kts 359°
2026-05-06 19:47 47.61403 11.57103 36857 ft 477 kts 13°
2026-05-06 19:48 47.64541 11.58712 36862 ft 479 kts 24°
2026-05-06 19:48 47.67450 11.61127 36866 ft 480 kts 35°
2026-05-06 19:48 47.70020 11.64283 36864 ft 479 kts 46°
2026-05-06 19:48 47.72242 11.67971 36867 ft 479 kts 50°
2026-05-06 19:49 47.76603 11.75455 36873 ft 479 kts 50°
2026-05-06 19:49 47.80981 11.82952 36799 ft 480 kts 50°
2026-05-06 19:50 47.83168 11.86713 36462 ft 480 kts 50°
2026-05-06 19:50 47.85350 11.90470 36076 ft 480 kts 50°
2026-05-06 19:50 47.87533 11.94232 35590 ft 480 kts 50°
2026-05-06 19:50 47.89722 11.98012 34961 ft 482 kts 50°
2026-05-06 19:51 47.91913 12.01803 34442 ft 482 kts 50°
2026-05-06 19:51 47.94109 12.05615 34295 ft 485 kts 50°
2026-05-06 19:51 47.96311 12.09438 34149 ft 487 kts 50°
2026-05-06 19:51 47.98519 12.13271 33988 ft 488 kts 50°
2026-05-06 19:52 48.00704 12.17069 33836 ft 488 kts 50°
2026-05-06 19:52 48.02916 12.20924 33886 ft 489 kts 50°
2026-05-06 19:52 48.07331 12.28642 33888 ft 489 kts 50°
2026-05-06 19:53 48.11752 12.36375 33888 ft 489 kts 50°
2026-05-06 19:53 48.16162 12.44128 33889 ft 489 kts 50°
2026-05-06 19:54 48.20575 12.51903 33886 ft 489 kts 50°
2026-05-06 19:54 48.25321 12.59181 33876 ft 489 kts 39°
2026-05-06 19:55 48.30578 12.65679 33874 ft 489 kts 39°
2026-05-06 19:55 48.35829 12.72197 33862 ft 489 kts 39°
2026-05-06 19:56 48.41173 12.78523 33857 ft 489 kts 35°
2026-05-06 19:56 48.46768 12.84319 33849 ft 489 kts 32°
2026-05-06 19:57 48.52423 12.90017 33850 ft 489 kts 33°
2026-05-06 19:57 48.58025 12.95859 33832 ft 489 kts 34°
2026-05-06 19:58 48.63556 13.01784 33547 ft 482 kts 34°
2026-05-06 19:58 48.66236 13.04666 33269 ft 475 kts 35°
2026-05-06 19:58 48.68914 13.07548 32996 ft 469 kts 34°
2026-05-06 19:59 48.71566 13.10389 32720 ft 466 kts 34°
2026-05-06 19:59 48.73352 13.12294 32473 ft 464 kts 34°
2026-05-06 19:59 48.76847 13.16022 31702 ft 463 kts 35°
2026-05-06 19:59 48.79475 13.18827 31148 ft 462 kts 35°
2026-05-06 20:00 48.82096 13.21626 30585 ft 460 kts 35°
2026-05-06 20:00 48.84703 13.24412 30043 ft 457 kts 35°
2026-05-06 20:00 48.86461 13.26296 29648 ft 456 kts 35°
2026-05-06 20:00 48.89040 13.29069 29027 ft 453 kts 35°
2026-05-06 20:01 48.91607 13.31840 28412 ft 451 kts 35°
2026-05-06 20:01 48.94162 13.34599 27809 ft 448 kts 35°
2026-05-06 20:01 48.96667 13.37304 27235 ft 446 kts 35°
2026-05-06 20:01 48.99221 13.40059 26653 ft 443 kts 35°
2026-05-06 20:02 49.01726 13.42763 26096 ft 440 kts 35°
2026-05-06 20:02 49.04187 13.45425 25549 ft 438 kts 35°
2026-05-06 20:02 49.06661 13.48107 25006 ft 435 kts 35°
2026-05-06 20:02 49.09124 13.50785 24462 ft 433 kts 35°
2026-05-06 20:03 49.11570 13.53452 23950 ft 431 kts 35°
2026-05-06 20:03 49.14001 13.56109 23437 ft 429 kts 35°
2026-05-06 20:03 49.16425 13.58759 22854 ft 428 kts 35°
2026-05-06 20:03 49.18846 13.61407 22246 ft 426 kts 35°
2026-05-06 20:04 49.21238 13.64022 21893 ft 418 kts 35°
2026-05-06 20:04 49.23598 13.66601 21321 ft 416 kts 35°
2026-05-06 20:04 49.25943 13.69165 20756 ft 413 kts 35°
2026-05-06 20:04 49.28273 13.71717 20183 ft 411 kts 35°
2026-05-06 20:05 49.30590 13.74263 19652 ft 408 kts 35°
2026-05-06 20:05 49.32885 13.76790 19121 ft 405 kts 35°
2026-05-06 20:05 49.35160 13.79297 18598 ft 401 kts 36°
2026-05-06 20:05 49.37420 13.81789 18074 ft 398 kts 36°
2026-05-06 20:06 49.39656 13.84260 17571 ft 392 kts 36°
2026-05-06 20:06 49.41832 13.86667 17300 ft 380 kts 36°
2026-05-06 20:06 49.43921 13.88977 17032 ft 369 kts 36°
2026-05-06 20:06 49.45976 13.91247 16816 ft 359 kts 35°
2026-05-06 20:07 49.47979 13.93464 16765 ft 352 kts 36°
2026-05-06 20:07 49.49962 13.95667 16645 ft 352 kts 36°
2026-05-06 20:07 49.51938 13.97868 16395 ft 349 kts 36°
2026-05-06 20:07 49.53900 14.00050 16137 ft 347 kts 36°
2026-05-06 20:08 49.55853 14.02221 15885 ft 346 kts 36°
2026-05-06 20:08 49.57797 14.04385 15629 ft 344 kts 36°
2026-05-06 20:08 49.59734 14.06543 15387 ft 342 kts 36°
2026-05-06 20:08 49.61658 14.08689 15133 ft 341 kts 36°
2026-05-06 20:09 49.63573 14.10824 14885 ft 339 kts 34°
2026-05-06 20:09 49.65625 14.12594 14634 ft 337 kts 22°
2026-05-06 20:09 49.67828 14.13793 14399 ft 335 kts 17°
2026-05-06 20:09 49.70030 14.14933 14152 ft 333 kts 17°
2026-05-06 20:10 49.72223 14.16083 13905 ft 332 kts 17°
2026-05-06 20:10 49.74389 14.17223 13651 ft 326 kts 17°
2026-05-06 20:10 49.76525 14.18352 13259 ft 324 kts 18°
2026-05-06 20:10 49.78678 14.19348 12893 ft 322 kts
2026-05-06 20:11 49.80882 14.19161 12760 ft 317 kts 341°
2026-05-06 20:11 49.82950 14.18024 12775 ft 310 kts 335°
2026-05-06 20:11 49.84888 14.16853 12778 ft 296 kts 335°
2026-05-06 20:11 49.86682 14.15766 12716 ft 285 kts 335°
2026-05-06 20:12 49.88504 14.14663 12589 ft 278 kts 335°
2026-05-06 20:12 49.90292 14.13582 12343 ft 274 kts 335°
2026-05-06 20:12 49.92064 14.12510 12063 ft 273 kts 335°
2026-05-06 20:12 49.93831 14.11442 11778 ft 272 kts 335°
2026-05-06 20:13 49.95610 14.10367 11511 ft 270 kts 335°
2026-05-06 20:13 49.97361 14.09312 11232 ft 269 kts 335°
2026-05-06 20:13 49.99101 14.08264 10971 ft 268 kts 335°
2026-05-06 20:13 50.00837 14.07217 10704 ft 267 kts 335°
2026-05-06 20:14 50.02563 14.06175 10447 ft 266 kts 335°
2026-05-06 20:14 50.04284 14.05136 10186 ft 264 kts 335°
2026-05-06 20:14 50.05973 14.04117 9925 ft 263 kts 335°
2026-05-06 20:14 50.07677 14.03088 9670 ft 262 kts 335°
2026-05-06 20:15 50.09374 14.02063 9382 ft 261 kts 335°
2026-05-06 20:15 50.10893 14.00624 9090 ft 253 kts 311°
2026-05-06 20:15 50.12058 13.98594 8839 ft 250 kts 306°
2026-05-06 20:15 50.13161 13.96504 8776 ft 249 kts 305°
2026-05-06 20:16 50.14245 13.94432 8775 ft 240 kts 305°
2026-05-06 20:16 50.15278 13.92465 8777 ft 231 kts 305°
2026-05-06 20:16 50.16291 13.90536 8781 ft 229 kts 305°
2026-05-06 20:16 50.17297 13.88618 8785 ft 228 kts 305°
2026-05-06 20:17 50.18305 13.86699 8784 ft 228 kts 305°
2026-05-06 20:17 50.19310 13.84782 8784 ft 228 kts 305°
2026-05-06 20:17 50.20315 13.82862 8783 ft 228 kts 305°
2026-05-06 20:17 50.21316 13.80945 8782 ft 228 kts 305°
2026-05-06 20:18 50.22320 13.79025 8783 ft 228 kts 305°
2026-05-06 20:18 50.23323 13.77111 8783 ft 228 kts 305°
2026-05-06 20:18 50.24340 13.75204 8778 ft 229 kts 309°
2026-05-06 20:18 50.25712 13.73917 8782 ft 237 kts 343°
2026-05-06 20:19 50.27364 13.73952 8718 ft 242 kts 15°
2026-05-06 20:19 50.28785 13.75309 8433 ft 241 kts 47°
2026-05-06 20:19 50.29845 13.77335 8129 ft 241 kts 54°
2026-05-06 20:19 50.30836 13.79443 7845 ft 240 kts 55°
2026-05-06 20:20 50.31807 13.81549 7575 ft 238 kts 55°
2026-05-06 20:20 50.32770 13.83650 7307 ft 236 kts 55°
2026-05-06 20:20 50.33526 13.85895 7013 ft 233 kts 79°
2026-05-06 20:20 50.33431 13.88347 6816 ft 225 kts 115°
2026-05-06 20:21 50.32509 13.90200 6777 ft 219 kts 147°
2026-05-06 20:21 50.31215 13.91450 6703 ft 218 kts 154°
2026-05-06 20:21 50.29886 13.92585 6418 ft 217 kts 155°
2026-05-06 20:21 50.28553 13.93696 6133 ft 217 kts 155°
2026-05-06 20:22 50.27221 13.94794 5762 ft 216 kts 155°
2026-05-06 20:22 50.25896 13.95859 5498 ft 211 kts 155°
2026-05-06 20:22 50.24594 13.96893 5198 ft 209 kts 155°
2026-05-06 20:22 50.23428 13.98219 4842 ft 211 kts 130°
2026-05-06 20:23 50.22546 14.00060 4558 ft 212 kts 127°
2026-05-06 20:23 50.21674 14.01896 4334 ft 208 kts 127°
2026-05-06 20:23 50.20830 14.03662 4204 ft 198 kts 127°
2026-05-06 20:23 50.20034 14.05323 4193 ft 185 kts 127°
2026-05-06 20:24 50.19270 14.06919 3940 ft 181 kts 126°
2026-05-06 20:24 50.18526 14.08470 3715 ft 177 kts 126°
2026-05-06 20:24 50.17796 14.09992 3490 ft 174 kts 126°
2026-05-06 20:24 50.17071 14.11502 3252 ft 173 kts 126°
2026-05-06 20:25 50.16353 14.12998 3032 ft 172 kts 125°
2026-05-06 20:25 50.15637 14.14487 2802 ft 171 kts 125°
2026-05-06 20:25 50.14930 14.15958 2576 ft 165 kts 125°
2026-05-06 20:25 50.14286 14.17293 2369 ft 145 kts 124°
2026-05-06 20:26 50.13701 14.18509 2182 ft 137 kts 124°
2026-05-06 20:26 50.13139 14.19677 1995 ft 132 kts 124°
2026-05-06 20:26 50.12597 14.20801 1801 ft 128 kts 125°
2026-05-06 20:26 50.12065 14.21900 1654 ft 127 kts 126°
2026-05-06 20:27 50.11536 14.22999 1456 ft 126 kts 126°
2026-05-06 20:27 50.11023 14.24071 1274 ft 124 kts 126°
2026-05-06 20:27 50.10511 14.25123 1171 ft 110 kts 126°
2026-05-06 20:27 50.10159 14.25867 1189 ft 61 kts 127°
2026-05-06 20:28 50.09948 14.26301 1203 ft 42 kts 127°
2026-05-06 20:28 50.09866 14.26538 1213 ft 18 kts 84°
2026-05-06 20:28 50.09886 14.26749 1212 ft 22 kts 82°
2026-05-06 20:28 50.09908 14.26991 1208 ft 22 kts 82°
2026-05-06 20:29 50.09931 14.27139 1206 ft 11 kts 22°
2026-05-06 20:29 50.09987 14.27039 1205 ft 15 kts 305°
2026-05-06 20:29 50.10060 14.26892 1202 ft 20 kts 307°
2026-05-06 20:29 50.10152 14.26700 1197 ft 25 kts 306°
2026-05-06 20:30 50.10218 14.26562 1196 ft 13 kts 306°
2026-05-06 20:30 50.10344 14.26300 1190 ft 11 kts 306°
2026-05-06 20:30 50.10385 14.26216 1189 ft 10 kts 307°
2026-05-06 20:31 50.10409 14.26166 1188 ft 1 kts 307°
2026-05-06 20:31 50.10416 14.26152 1188 ft 3 kts 307°
2026-05-06 20:31 50.10439 14.26121 1187 ft 6 kts 347°
2026-05-06 20:31 50.10490 14.26168 1177 ft 7 kts 34°
2026-05-06 20:32 50.10533 14.26235 1177 ft 7 kts 79°
2026-05-06 20:32 50.10508 14.26307 1178 ft 9 kts 124°
2026-05-06 20:32 50.10467 14.26401 1177 ft 13 kts 124°
2026-05-06 20:32 50.10423 14.26494 1177 ft 10 kts 132°
2026-05-06 20:33 50.10409 14.26555 1179 ft 5 kts 43°
2026-05-06 20:33 50.10435 14.26581 1177 ft 1 kts 34°
2026-05-06 20:33 50.10439 14.26585 1177 ft 0 kts 34°